Hourly Weather Roundup
Issued by NWS Central Illinois

Home | Current Version | Previous Version | Text Only | Print | Product List | Glossary On
Versions: 1 2 3 4 5 6 7 8 9 10 11 12 13 14 15 16 17 18 19 20 21 22 23 24 25 26 27 28 29 30 31 32 33 34 35 36 37 38 39 40 41 42 43 44 45 46 47 48 49 50
939
NZUS43 KILX 272110
HWRILX

AREA WEATHER ROUNDUP
NATIONAL WEATHER SERVICE, LINCOLN IL
300 PM CST MON FEB 27 2017


CITY           SKY/WX    TMP DP  RH WIND       PRES   REMARKS
BLOOMINGTON    PTSUNNY   57  36  45 S12       30.06F
CHAMPAIGN      PTSUNNY   58  36  43 S8        30.08F
DECATUR        MOSUNNY   58  36  43 SW9G17    30.06F
EFFINGHAM      CLOUDY    58  43  57 SE8       30.09F
FLORA          PTSUNNY   58  44  60 S9        30.10S
GALESBURG      SUNNY     56  32  39 S10G16    30.01F
JACKSONVILLE   SUNNY     58  33  38 S6        30.02F
LACON          MOSUNNY   56  33  42 SW10      30.04F
LAWRENCEVILLE  CLOUDY    55  44  66 S10       30.13S
LITCHFIELD     SUNNY     59  40  49 S10       30.04F
$$


CITY           SKY/WX    TMP DP  RH WIND       PRES   REMARKS
LINCOLN        SUNNY     59  37  43 S7        30.05S
MACOMB         SUNNY     58  31  35 S10G18    30.03F
MATTOON        PTSUNNY   55  41  59 S10       30.08F
MT CARMEL AP   CLOUDY    55  43  65 S8        30.11F
OLNEY-NOBLE AP CLOUDY    55  46  71 S7        30.11S
PARIS          PTSUNNY   55  40  57 SE10      30.11F
PEORIA         PTSUNNY   58  34  40 S13       30.03F
PONTIAC        PTSUNNY   58  36  43 S10       30.07F
RANTOUL        MOSUNNY   57  37  47 S8G16     30.08F
SPRINGFIELD    SUNNY     62  34  35 S12G17    30.04F
TAYLORVILLE    MOSUNNY   59  37  44 S7G16     30.05F
$$

...REGIONAL REPORTS...


CITY           SKY/WX    TMP DP  RH WIND       PRES   REMARKS
CHICAGO O`HARE PTSUNNY   53  33  46 S10       30.08F
KANKAKEE       PTSUNNY   55  33  43 CALM      30.09F
MOLINE         MOSUNNY   55  31  39 VRB7G20   30.01F
MOUNT STERLING SUNNY     58  30  34 SE9       30.00F
MOUNT VERNON   PTSUNNY   62  45  53 S13       30.08F
PITTSFIELD     SUNNY     60  32  34 S7        30.01F
QUINCY         SUNNY     59  29  31 SE10      29.99F
ROCKFORD       PTSUNNY   51  32  48 SW5       30.08S
$$


CITY           SKY/WX    TMP DP  RH WIND       PRES   REMARKS
BURLINGTON     MOSUNNY   57  29  34 S13G20    29.98F
CEDAR RAPIDS   CLOUDY    53  29  39 S13       29.97F
DES MOINES     CLOUDY    56  26  31 SE16      29.91F
KIRKSVILLE     CLOUDY    60  25  26 S15       29.95F
OTTUMWA        CLOUDY    57  23  26 SE10      29.96F
ST LOUIS       MOSUNNY   64  38  38 SE12      30.02F
$$


CITY           SKY/WX    TMP DP  RH WIND       PRES   REMARKS
TERRE HAUTE    CLOUDY    53  40  61 SE9       30.13R
EVANSVILLE     CLOUDY    59  46  62 SE5       30.12F
INDIANAPOLIS   PTSUNNY   50  39  66 SE13      30.14S
LAFAYETTE      CLOUDY    53  36  52 SE9       30.12F
MADISON        PTSUNNY   48  29  47 SW8G16    30.02F
MILWAUKEE      PTSUNNY   44  32  62 SE9       30.08F
$$






USA.gov is the U.S. government's official web portal to all federal, state and local government web resources and services.